Regional Weather Roundup
Issued by NWS

Home | Current Version | Previous Version | Graphics & Text | Print | Product List | Glossary On
Versions: 1 2 3 4 5 6 7 8 9 10 11 12 13 14 15 16 17 18 19 20 21 22 23 24 25 26 27 28 29 30 31 32 33 34 35 36 37 38 39 40 41 42 43 44 45 46 47 48 49 50
000
ASUS43 KBIS 231310
RWRND

NORTH DAKOTA REGIONAL WEATHER ROUNDUP
NATIONAL WEATHER SERVICE BISMARCK ND
700 AM CST THU FEB 23 2017

NOTE: "FAIR" INDICATES FEW OR NO CLOUDS BELOW 12,000 FEET WITH NO
SIGNIFICANT WEATHER AND/OR OBSTRUCTIONS TO VISIBILITY.


NDZ001>003-009>011-017-231400-
NORTHWEST NORTH DAKOTA

CITY           SKY/WX    TMP DP  RH WIND       PRES   REMARKS
WILLISTON      CLOUDY    29  26  89 SW6       30.02S
MINOT          CLOUDY    28  24  85 N17       30.02S WCI  16
MINOT AFB      CLOUDY    26  22  85 NE15      30.02R WCI  14
$$

NDZ018>021-031>035-040>046-231400-
SOUTHWEST NORTH DAKOTA

CITY           SKY/WX    TMP DP  RH WIND       PRES   REMARKS
BISMARCK       CLOUDY    28  25  88 CALM      30.01S
DICKINSON      CLOUDY    25  23  92 N6        29.95F FOG     WCI  18
GARRISON         N/A     28  26  92 NW9       30.00S WCI  19
HETTINGER ARPT CLOUDY    26  23  88 NE8       29.95S WCI  18
$$

NDZ004>008-012>016-024-026-027-054-231400-
NORTHEAST NORTH DAKOTA

CITY           SKY/WX    TMP DP  RH WIND       PRES   REMARKS
GRAND FORKS    CLOUDY    29  20  69 N5        30.05S
GRND FRKS AFB  CLOUDY    28  22  81 N5        30.05R
DEVILS LAKE    CLOUDY    26  24  92 CALM      30.02F
$$

NDZ022-023-025-028>030-036>039-047>053-231400-
SOUTHEAST NORTH DAKOTA

CITY           SKY/WX    TMP DP  RH WIND       PRES   REMARKS
FARGO          CLOUDY    30  24  78 N12       30.02S
JAMESTOWN      CLOUDY    26  24  92 N8        29.99F WCI  18
$$




USA.gov is the U.S. government's official web portal to all federal, state and local government web resources and services.